Location: Pradons
(44.4746°N, 4.3578°E)
Time: 10:02:21
(UTC+00:00)

Cosmos 1833 Rocket - Pass Details

Date: 09 April 2020
Orbit: 834 x 838 km, 71.0° (Epoch: 05 June)

Event Time Altitude Azimuth Distance (km) Brightness Sun altitude
Exits shadow 22:20:14 39° 301° (WNW) 1,249 3.8 -34.2°
Maximum altitude 22:20:22 39° 304° (NW) 1,248 3.8 -34.2°
Drops below altitude 10° 22:25:37 10° 12° (NNE) 2,459 5.7 -34.6°
Sets 22:28:15 0° 21° (NNE) 3,396 6.4 -34.8°
